Volver al catálogo

INSAT 3DR

ActivoMeteoGEO
NORAD 41752·PAYLOAD·🇮🇳 India

Lanzado Sep 8, 2016 desde Satish Dhawan Space Centre

Loading…

TLE

ActualizadoSource: Space-Track

Época: Sep 14, 2026, 20:59 UTC

1 41752U 16054A   26257.87494053 -.00000084  00000-0  00000-0 0  9990
2 41752   0.0334 103.2303 0011570 161.2850 118.3262  1.00271972 36719

Sigue INSAT 3DR en tiempo real con AllMySat

Download on the App Store